CW5478 Weather Reports


Display with metric or nautical units.
time (UTC)temp
F
wind
direction
speed
MPH
gust
MPH
rain 1hr
in
rain 24hr
in
rain mn
in
humidity
%
barometer
mb
20260506172306 23 22 7.0 12.0 0.02 0.13 0.07 87 1021.6
20260506171803 23 22 9.0 13.0 0.02 0.13 0.07 87 1021.6
20260506171303 24 22 12.0 15.0 0.04 0.13 0.07 88 1021.6
20260506170803 24 22 12.0 16.0 0.04 0.13 0.07 87 1021.3
20260506170303 25 22 11.0 14.0 0.04 0.13 0.07 87 1021.3
20260506165803 25 22 12.0 16.0 0.06 0.13 0.07 87 1021.3
20260506165305 26 22 10.0 15.0 0.06 0.13 0.07 87 1021.3
20260506164303 26 90 5.0 9.0 0.07 0.13 0.07 87 1020.7
20260506163803 26 118 9.0 13.0 0.06 0.12 0.06 88 1020.3
20260506163303 26 135 13.0 17.0 0.06 0.12 0.06 88 1019.9
20260506162306 27 135 13.0 17.0 0.05 0.11 0.05 88 1019.6
20260506161803 28 135 13.0 18.0 0.05 0.11 0.05 88 1019.6
20260506161303 29 135 9.0 16.0 0.03 0.09 0.03 88 1019.6
20260506160803 29 0 5.0 12.0 0.03 0.09 0.03 89 1019.6
20260506160303 30 0 6.0 9.0 0.03 0.09 0.03 89 1019.3
20260506154803 30 0 3.0 5.0 0.00 0.06 0.00 90 1019.6
20260506154303 30 0 3.0 5.0 0.00 0.06 0.00 90 1019.6
20260506153803 30 0 3.0 5.0 0.00 0.06 0.00 90 1019.4
20260506153303 30 0 3.0 3.0 0.00 0.06 0.00 90 1019.6
20260506152803 29 0 2.0 3.0 0.00 0.06 0.00 89 1019.6
20260506152305 28 7 1.0 3.0 0.00 0.06 0.00 89 1019.6
20260506151803 27 90 0.0 2.0 0.00 0.06 0.00 89 1019.4
20260506151303 26 90 3.0 5.0 0.00 0.06 0.00 89 1019.3
20260506145803 25 90 4.0 6.0 0.00 0.06 0.00 89 1019.6
20260506145305 25 112 5.0 9.0 0.00 0.06 0.00 89 1019.3
20260506144803 25 118 8.0 10.0 0.00 0.06 0.00 89 1019.3
20260506144303 24 117 10.0 13.0 0.00 0.06 0.00 89 1019.3
20260506143803 24 135 10.0 13.0 0.00 0.06 0.00 89 1019.3
20260506143303 24 135 10.0 13.0 0.00 0.06 0.00 89 1019.3
20260506142803 25 135 9.0 10.0 0.00 0.06 0.00 89 1019.3
20260506142305 25 135 7.0 9.0 0.00 0.06 0.00 89 1019.3
20260506141803 25 135 7.0 9.0 0.00 0.06 0.00 89 1019.3
20260506141303 25 180 6.0 6.0 0.00 0.06 0.00 89 1019.5
20260506140303 24 315 0.0 2.0 0.00 0.06 0.00 88 1019.6
20260506135803 24 315 2.0 7.0 0.00 0.06 0.00 88 1019.6
20260506135306 24 336 7.0 9.0 0.00 0.06 0.00 88 1019.6
20260506134803 24 0 9.0 12.0 0.00 0.06 0.00 88 1019.9
20260506134303 24 357 8.0 12.0 0.00 0.06 0.00 88 1019.7
20260506133803 24 0 10.0 14.0 0.00 0.06 0.00 89 1019.6
20260506133303 25 336 12.0 14.0 0.00 0.06 0.00 89 1019.6
20260506132803 25 330 10.0 13.0 0.00 0.06 0.00 89 1019.6
20260506131802 25 322 7.0 14.0 0.00 0.06 0.00 89 1019.4
20260506131303 25 339 10.0 14.0 0.00 0.06 0.00 89 1019.6
20260506130304 25 322 12.0 16.0 0.00 0.06 0.00 89 1019.3
20260506125804 25 320 13.0 17.0 0.00 0.06 0.00 89 1019.3
20260506125305 25 325 13.0 17.0 0.00 0.06 0.00 89 1019.1
20260506124303 25 321 18.0 22.0 0.00 0.06 0.00 89 1018.6
20260506123803 25 318 17.0 22.0 0.00 0.06 0.00 89 1018.6
20260506123302 26 315 16.0 22.0 0.00 0.06 0.00 89 1018.6
20260506122305 26 315 14.0 21.0 0.00 0.06 0.00 89 1018.1
20260506121304 27 321 8.0 10.0 0.00 0.06 0.00 89 1018.0
20260506120303 27 320 7.0 9.0 0.00 0.06 0.00 89 1017.9
20260506115803 27 315 6.0 8.0 0.00 0.06 0.00 89 1017.9
20260506115306 27 328 5.0 7.0 0.00 0.06 0.00 89 1017.8
20260506114804 27 0 6.0 7.0 0.00 0.06 0.00 89 1017.9
20260506113803 27 347 6.0 7.0 0.00 0.06 0.00 89 1017.6
20260506113304 27 330 6.0 7.0 0.00 0.06 0.00 90 1017.7
20260506112803 28 337 7.0 8.0 0.00 0.06 0.00 90 1017.9
20260506112306 28 0 6.0 8.0 0.00 0.06 0.00 90 1017.9
20260506111803 28 359 7.0 9.0 0.00 0.06 0.00 90 1017.9
20260506111303 28 0 5.0 8.0 0.00 0.06 0.00 90 1017.7
20260506110803 28 0 5.0 8.0 0.00 0.06 0.00 90 1017.6
20260506110303 28 0 5.0 7.0 0.00 0.06 0.00 90 1017.9
20260506105803 28 0 7.0 8.0 0.00 0.06 0.00 90 1017.9
20260506105305 28 0 3.0 5.0 0.00 0.06 0.00 90 1017.6
20260506104803 28 0 3.0 5.0 0.00 0.06 0.00 90 1017.7
20260506104303 28 0 4.0 5.0 0.00 0.06 0.00 90 1017.6
20260506103303 29 351 5.0 7.0 0.00 0.06 0.00 90 1017.8
20260506102803 29 0 5.0 6.0 0.00 0.06 0.00 90 1017.9
20260506102305 29 0 5.0 6.0 0.00 0.06 0.00 90 1017.9
20260506101803 29 0 5.0 7.0 0.00 0.06 0.00 90 1017.9
20260506101303 29 0 5.0 6.0 0.00 0.06 0.00 90 1017.9
20260506100304 29 0 1.0 2.0 0.00 0.06 0.00 90 1017.9
20260506095803 29 0 0.0 0.0 0.00 0.06 0.00 90 1017.8
20260506095305 29 0 0.0 1.0 0.00 0.06 0.00 90 1017.9
20260506094803 29 0 1.0 2.0 0.00 0.06 0.00 90 1017.9
20260506094303 29 0 1.0 2.0 0.00 0.06 0.00 90 1017.9
20260506093803 29 0 1.0 2.0 0.00 0.06 0.00 90 1017.9
20260506093303 29 0 2.0 2.0 0.00 0.06 0.00 90 1017.9
20260506092803 29 0 3.0 3.0 0.00 0.06 0.00 90 1017.9
20260506092305 29 0 3.0 5.0 0.00 0.06 0.00 90 1017.9
20260506091803 29 0 4.0 5.0 0.00 0.06 0.00 90 1017.9
20260506091304 29 0 3.0 5.0 0.00 0.06 0.00 90 1017.9
20260506090803 29 0 2.0 3.0 0.00 0.06 0.00 90 1017.9
20260506090303 29 0 4.0 7.0 0.00 0.06 0.00 90 1017.9
20260506085804 29 22 1.0 3.0 0.00 0.06 0.00 90 1017.9
20260506085305 29 22 3.0 5.0 0.00 0.06 0.00 90 1017.9
20260506084803 29 0 3.0 6.0 0.00 0.06 0.00 90 1017.9
20260506084303 29 0 4.0 5.0 0.00 0.06 0.00 90 1017.9
20260506083803 29 0 5.0 5.0 0.00 0.06 0.00 90 1017.9
20260506083303 29 45 3.0 5.0 0.00 0.06 0.00 90 1017.9
20260506082803 29 45 4.0 5.0 0.00 0.06 0.00 90 1017.9
20260506082305 29 45 3.0 6.0 0.00 0.06 0.00 90 1017.9
20260506081803 29 45 2.0 5.0 0.00 0.06 0.00 90 1017.9
20260506081304 29 45 3.0 3.0 0.00 0.06 0.00 90 1017.9
20260506080804 29 45 2.0 3.0 0.00 0.06 0.00 90 1017.9
20260506080303 29 45 3.0 5.0 0.00 0.06 0.00 90 1017.9
20260506073304 29 45 2.0 5.0 0.00 0.06 0.00 90 1018.2
20260506072305 29 0 5.0 6.0 0.00 0.06 0.00 90 1018.2
20260506071803 29 0 5.0 7.0 0.00 0.06 0.00 90 1018.2
20260506071303 29 0 5.0 7.0 0.00 0.06 0.00 90 1018.2
20260506070304 29 23 6.0 7.0 0.00 0.06 0.00 90 1018.4
20260506062305 29 0 7.0 9.0 0.00 0.06 0.00 90 1018.4
20260506061803 29 0 7.0 9.0 0.00 0.06 0.00 90 1018.2
20260506061303 29 344 6.0 10.0 0.00 0.06 0.00 90 1018.2
20260506060903 30 0 7.0 10.0 0.00 0.06 0.00 90 1018.2
20260506060304 29 321 6.0 8.0 0.00 0.06 0.00 90 1018.2
20260506051304 30 0 7.0 9.0 0.00 0.06 0.06 90 1017.9
20260506050803 30 0 6.0 9.0 0.00 0.06 0.06 90 1018.2
20260506050304 30 0 6.0 8.0 0.00 0.06 0.06 90 1018.2
20260506043804 30 0 8.0 10.0 0.00 0.06 0.06 89 1018.2
20260506042804 30 0 7.0 8.0 0.00 0.06 0.06 89 1018.1
20260506041304 30 0 7.0 10.0 0.00 0.06 0.06 89 1017.9
20260506040304 30 354 10.0 13.0 0.00 0.06 0.06 89 1017.9
20260506035306 30 353 9.0 12.0 0.01 0.06 0.06 89 1017.9
20260506034803 30 0 10.0 13.0 0.01 0.06 0.06 88 1017.9
20260506034304 31 347 10.0 13.0 0.01 0.06 0.06 88 1017.7
20260506033804 31 357 11.0 15.0 0.01 0.06 0.06 88 1017.9
20260506032804 33 0 7.0 10.0 0.01 0.06 0.06 88 1017.6
20260506032305 33 30 6.0 8.0 0.01 0.06 0.06 87 1017.7
20260506031803 33 315 7.0 13.0 0.01 0.06 0.06 87 1017.6
20260506031304 33 296 9.0 13.0 0.02 0.06 0.06 87 1017.6
20260506030804 33 315 9.0 14.0 0.02 0.06 0.06 86 1017.2
20260506030304 34 292 12.0 15.0 0.02 0.06 0.06 86 1017.2
20260506025305 34 315 11.0 16.0 0.01 0.05 0.05 85 1017.1
20260506024804 34 315 10.0 14.0 0.01 0.05 0.05 85 1016.9
20260506024304 34 308 13.0 18.0 0.01 0.05 0.05 85 1016.7
20260506023803 35 315 12.0 17.0 0.01 0.05 0.05 86 1016.7
20260506023303 34 315 10.0 14.0 0.01 0.05 0.05 86 1016.6
20260506022804 34 313 13.0 17.0 0.01 0.05 0.05 87 1016.2
20260506022305 33 210 6.0 12.0 0.01 0.05 0.05 87 1016.4
20260506021803 33 223 8.0 15.0 0.01 0.05 0.05 87 1016.2
20260506021304 33 167 15.0 21.0 0.01 0.04 0.04 87 1016.2
20260506020803 33 146 16.0 21.0 0.01 0.04 0.04 86 1016.2
20260506020303 33 143 16.0 20.0 0.01 0.04 0.04 86 1016.2
20260506015803 33 135 12.0 16.0 0.01 0.04 0.04 86 1016.2
20260506015305 33 141 13.0 18.0 0.01 0.04 0.04 86 1015.9
20260506014803 33 150 10.0 15.0 0.01 0.04 0.04 86 1016.2
20260506014303 33 152 11.0 16.0 0.02 0.04 0.04 86 1016.2
20260506013804 33 135 16.0 23.0 0.02 0.04 0.04 86 1016.1
20260506013303 34 135 16.0 20.0 0.02 0.04 0.04 85 1016.2
20260506012803 34 135 11.0 17.0 0.03 0.04 0.04 85 1016.0
20260506012307 34 161 14.0 21.0 0.03 0.04 0.04 84 1016.2
20260506011803 34 140 16.0 22.0 0.03 0.04 0.04 84 1015.7
20260506011303 34 139 17.0 24.0 0.02 0.03 0.03 84 1015.7
20260506010804 34 143 14.0 20.0 0.02 0.03 0.03 84 1016.1
20260506005803 34 135 14.0 22.0 0.03 0.03 0.03 86 1015.5
20260506005305 34 151 13.0 18.0 0.03 0.03 0.03 87 1015.5
20260506004803 34 157 9.0 15.0 0.03 0.03 0.03 88 1015.5
20260506003803 34 147 10.0 13.0 0.02 0.02 0.02 88 1015.9
20260506003304 34 180 9.0 13.0 0.02 0.02 0.02 89 1015.9
20260506002305 34 180 8.0 12.0 0.01 0.01 0.01 88 1015.9
20260506001804 34 140 8.0 10.0 0.01 0.01 0.01 88 1016.2
20260506001304 34 135 7.0 8.0 0.01 0.01 0.01 88 1016.2
20260506000804 34 135 5.0 6.0 0.01 0.01 0.01 88 1016.2
20260506000303 33 135 3.0 9.0 0.01 0.01 0.01 88 1016.2
20260505235803 33 135 7.0 10.0 0.00 0.00 0.00 88 1016.2
20260505234803 33 180 3.0 5.0 0.00 0.00 0.00 88 1016.2
20260505234304 34 337 0.0 0.0 0.00 0.00 0.00 88 1016.2
20260505233304 33 337 0.0 1.0 0.00 0.00 0.00 88 1016.6
20260505232804 33 337 0.0 0.0 0.00 0.00 0.00 88 1016.6
20260505232305 33 337 0.0 1.0 0.00 0.00 0.00 88 1016.6
20260505230803 33 337 3.0 3.0 0.00 0.00 0.00 88 1016.6
20260505230303 33 315 2.0 2.0 0.00 0.00 0.00 88 1016.6
20260505225805 33 315 2.0 2.0 0.00 0.00 0.00 88 1016.6
20260505224304 33 315 3.0 5.0 0.00 0.00 0.00 88 1016.6
20260505223803 33 315 5.0 8.0 0.00 0.00 0.00 88 1016.6
20260505222803 33 315 6.0 8.0 0.00 0.00 0.00 88 1016.6
20260505221803 33 315 7.0 9.0 0.00 0.00 0.00 88 1016.4
20260505221304 33 315 7.0 10.0 0.00 0.00 0.00 88 1016.6
20260505220804 33 330 6.0 8.0 0.00 0.00 0.00 88 1016.4
20260505220304 33 315 5.0 6.0 0.00 0.00 0.00 88 1016.6
20260505215803 33 315 5.0 6.0 0.00 0.00 0.00 88 1016.6
20260505215305 33 0 5.0 6.0 0.00 0.00 0.00 88 1016.6
20260505214303 34 315 5.0 10.0 0.00 0.00 0.00 88 1016.6
20260505213803 34 332 7.0 9.0 0.00 0.00 0.00 88 1016.6
20260505213304 34 330 6.0 8.0 0.00 0.00 0.00 88 1016.6
20260505212803 34 315 6.0 9.0 0.00 0.00 0.00 88 1016.7
20260505212305 34 335 7.0 9.0 0.00 0.00 0.00 88 1016.6
20260505211804 34 343 7.0 12.0 0.00 0.00 0.00 88 1016.9
20260505210803 34 327 7.0 12.0 0.00 0.00 0.00 88 1016.9
20260505210303 34 339 9.0 12.0 0.00 0.00 0.00 87 1016.9
20260505205804 34 341 9.0 14.0 0.00 0.00 0.00 87 1017.0
20260505204803 34 352 10.0 13.0 0.00 0.00 0.00 87 1017.1
20260505203803 35 358 10.0 14.0 0.00 0.00 0.00 85 1017.2
20260505203304 35 355 9.0 13.0 0.00 0.00 0.00 85 1017.2
20260505202306 36 336 10.0 13.0 0.00 0.00 0.00 83 1017.2
20260505201804 37 0 13.0 16.0 0.00 0.00 0.00 81 1017.1
20260505201304 38 349 13.0 17.0 0.00 0.00 0.00 79 1017.2
20260505200804 38 0 13.0 16.0 0.00 0.00 0.00 78 1017.2
20260505200304 39 355 12.0 17.0 0.00 0.00 0.00 77 1016.9
20260505195804 39 349 13.0 17.0 0.00 0.00 0.00 75 1016.9
20260505195305 41 0 15.0 20.0 0.00 0.00 0.00 73 1016.9
20260505194803 42 352 14.0 21.0 0.00 0.00 0.00 71 1016.9
20260505194303 42 0 13.0 20.0 0.00 0.00 0.00 71 1016.7
20260505193804 43 1 14.0 18.0 0.00 0.00 0.00 70 1016.9
20260505192803 46 1 12.0 16.0 0.00 0.00 0.00 67 1016.6
20260505192305 46 7 11.0 15.0 0.00 0.00 0.00 67 1016.9
20260505190804 47 354 9.0 13.0 0.00 0.00 0.00 64 1016.9
20260505190304 46 1 5.0 8.0 0.00 0.00 0.00 65 1017.0
20260505185803 45 318 3.0 8.0 0.00 0.00 0.00 66 1017.2
20260505184803 44 340 6.0 8.0 0.00 0.00 0.00 68 1017.2
20260505184304 44 24 5.0 9.0 0.00 0.00 0.00 69 1017.2
20260505183804 43 0 5.0 10.0 0.00 0.00 0.00 69 1017.2
20260505183304 43 325 5.0 10.0 0.00 0.00 0.00 68 1017.2
20260505182803 46 315 9.0 13.0 0.00 0.00 0.00 65 1017.2
20260505181804 46 225 1.0 9.0 0.00 0.00 0.00 66 1017.6
20260505181304 45 27 5.0 8.0 0.00 0.00 0.00 69 1017.6
20260505180803 44 135 3.0 9.0 0.00 0.00 0.00 70 1017.6
20260505175804 42 321 1.0 6.0 0.00 0.00 0.00 71 1017.8
20260505175305 42 0 5.0 9.0 0.00 0.00 0.00 72 1017.6
20260505174804 42 45 8.0 12.0 0.00 0.00 0.00 72 1017.6
20260505174304 41 36 6.0 10.0 0.00 0.00 0.00 73 1017.6
20260505173803 41 45 7.0 13.0 0.00 0.00 0.00 73 1017.8
20260505173303 41 17 8.0 12.0 0.00 0.00 0.00 73 1017.7